Location: Unspecified
(0.0000°N, 0.0000°E)
Time: 14:22:41
(UTC+00:00)

N. Korean satellite - Pass Details

Date: 11 April 2021
Orbit: 452 x 499 km, 97.2° (Epoch: 15 April)

Event Time Altitude Azimuth Distance (km) Brightness Sun altitude
Rises 05:13:57 0° 1° (N) 2,526 10.3 -11.7°
Reaches altitude 10° 05:16:04 10° 355° (N) 1,642 9.3 -11.1°
Maximum altitude 05:19:28 46° 281° (W) 644 6.8 -10.3°
Drops below altitude 10° 05:22:49 10° 207° (SSW) 1,624 8.9 -9.5°
Sets 05:24:55 0° 200° (SSW) 2,495 9.9 -8.9°
